Weather History for Ft Pierce, FL

Change the Weather History Date:

Thursday, April 4, 2013

  Actual Average Record
Temperature  
Mean Temperature 74 °F -  
Max Temperature 81 °F 81 °F 91 °F (1977)
Min Temperature 69 °F 60 °F 41 °F (1987)
Cooling Degree Days 10    
Growing Degree Days 24 (Base 50)    
Moisture  
Dew Point 67 °F    
Average Humidity 83    
Maximum Humidity 90    
Minimum Humidity 69    
Precipitation  
Precipitation 0.12 in - - ()
Sea Level Pressure  
Sea Level Pressure 29.99 in    
Wind  
Wind Speed 7 mph (South)    
Max Wind Speed 12 mph    
Max Gust Speed -    
Visibility 9 miles    
Events Rain , Thunderstorm    
Averages and records for this station are not official NWS values.
T = Trace of Precipitation, MM = Missing Value Source: NWS Daily Summary

Daily Weather History Graph

Daily Weather History Graph

Search for Another Location

Airport:

Trip Planner

Search our weather history database for the weather conditions in past years. The results will help you decide how hot, cold, wet, or windy it might be!

Date:

Astronomy

Apr. 04, 2013 Rise Set
Actual Time 7:08 AM EDT 7:40 PM EDT
Civil Twilight 6:44 AM EDT 8:04 PM EDT
Nautical Twilight 6:17 AM EDT 8:31 PM EDT
Astronomical Twilight 5:49 AM EDT 9:00 PM EDT
Moon 3:04 AM EDT (4/4) 2:25 PM EDT (4/4)
Length of Visible Light 13h 19m
Length of Day
12h 32m
Waning Crescent, 34% of the Moon is Illuminated
Apr 4
Waning Crescent
Apr 10
New
Apr 18
First Quarter
Apr 25
Full
May 2
Last Quarter

Hourly Weather History & Observations

Time (EDT) Temp. Heat Index Dew Point Humidity Pressure Visibility Wind Dir Wind Speed Gust Speed Precip Events Conditions
12:53 AM 75.0 °F - 69.1 °F 82% 30.05 in 10.0 mi SE 8.1 mph - N/A   Clear
1:53 AM 73.9 °F - 69.1 °F 85% 30.04 in 10.0 mi SSE 4.6 mph - N/A   Partly Cloudy
2:53 AM 73.0 °F - 68.0 °F 84% 30.01 in 10.0 mi South 6.9 mph - N/A   Clear
3:53 AM 73.0 °F - 68.0 °F 84% 29.99 in 9.0 mi SSE 5.8 mph - N/A   Clear
4:53 AM 73.0 °F - 68.0 °F 84% 29.97 in 10.0 mi South 10.4 mph - N/A   Clear
5:53 AM 73.0 °F - 66.9 °F 81% 29.98 in 10.0 mi South 10.4 mph - N/A   Mostly Cloudy
6:53 AM 73.9 °F - 66.9 °F 79% 30.02 in 10.0 mi South 6.9 mph - N/A   Overcast
7:39 AM 73.4 °F - 68.0 °F 83% 30.04 in 4.0 mi SSW 4.6 mph - 0.01 in Rain Light Rain
7:53 AM 73.0 °F - 68.0 °F 84% 30.04 in 4.0 mi South 4.6 mph - 0.01 in Rain Light Rain
8:00 AM 71.6 °F - 68.0 °F 88% 30.03 in 6.0 mi SSE 3.5 mph - 0.01 in Rain Light Rain
8:53 AM 73.0 °F - 69.1 °F 87% 30.01 in 9.0 mi SSE 5.8 mph - 0.01 in   Mostly Cloudy
9:53 AM 75.0 °F - 69.1 °F 82% 29.98 in 10.0 mi SSE 6.9 mph - N/A   Clear
10:53 AM 75.0 °F - 68.0 °F 79% 29.99 in 10.0 mi South 11.5 mph - 0.00 in Rain Light Rain
11:53 AM 75.9 °F - 69.1 °F 79% 30.02 in 10.0 mi SW 4.6 mph - 0.00 in   Scattered Clouds
12:53 PM 78.1 °F - 68.0 °F 71% 30.01 in 10.0 mi SW 10.4 mph - 0.01 in   Clear
1:53 PM 80.1 °F 82.9 °F 69.1 °F 69% 30.00 in 10.0 mi West 5.8 mph - N/A   Mostly Cloudy
2:53 PM 79.0 °F - 70.0 °F 74% 29.97 in 10.0 mi WNW 5.8 mph - 0.00 in   Mostly Cloudy
3:53 PM 75.9 °F - 70.0 °F 82% 29.95 in 6.0 mi NW 8.1 mph - 0.00 in Rain , Thunderstorm Thunderstorms and Rain
4:53 PM 69.1 °F - 64.9 °F 87% 30.01 in 10.0 mi North 3.5 mph - 0.05 in Rain , Thunderstorm Thunderstorms and Rain
5:37 PM 69.8 °F - 64.4 °F 83% 30.01 in 10.0 mi NW 3.5 mph - 0.04 in Rain Light Rain
5:53 PM 69.1 °F - 66.0 °F 90% 30.00 in 10.0 mi Calm Calm - 0.04 in   Mostly Cloudy
6:53 PM 69.1 °F - 64.9 °F 87% 29.95 in 10.0 mi SE 6.9 mph - 0.00 in   Mostly Cloudy
7:53 PM 69.1 °F - 64.9 °F 87% 29.92 in 10.0 mi SE 8.1 mph - N/A   Clear
8:53 PM 70.0 °F - 64.9 °F 84% 29.93 in 10.0 mi SE 11.5 mph - N/A   Clear
9:53 PM 71.1 °F - 66.0 °F 84% 29.93 in 10.0 mi SE 9.2 mph - N/A   Clear
10:53 PM 71.1 °F - 66.9 °F 87% 29.95 in 10.0 mi South 5.8 mph - N/A   Clear
11:53 PM 70.0 °F - 66.9 °F 90% 29.96 in 10.0 mi South 5.8 mph - N/A   Partly Cloudy